This is the latest recevied weather packets stored in our database for station/object IA5KRO-13. If no packets are shown the sender has not sent any weather packets the latest 10 day(s).
| Time | Temp. | Humidity | Pressure | Rain* | Wind** | Luminosity | Snow |
|---|---|---|---|---|---|---|---|
| 1777602624 | 10° C | 52% | 1030.5 hPa | 0 mm | - | - | - |
| 1777602310 | 10° C | 51% | 1030.5 hPa | 0 mm | - | - | - |
| 1777602013 | 10° C | 51% | 1030.5 hPa | 0 mm | - | - | - |
| 1777601109 | 12.22° C | 48% | 1030.5 hPa | 0 mm | - | - | - |
| 1777586709 | 13.89° C | 51% | 1028.5 hPa | 0 mm | - | - | - |
| 1777586434 | 13.89° C | 52% | 1028.5 hPa | 0 mm | - | - | - |
| 1777584309 | 15° C | 49% | 1028.5 hPa | 0 mm | - | - | - |
| 1777584012 | 15° C | 49% | 1028.5 hPa | 0 mm | - | - | - |
| 1777583712 | 15° C | 49% | 1028.5 hPa | 0 mm | - | - | - |
| 1777583412 | 15° C | 48% | 1028.5 hPa | 0 mm | - | - | - |
| 1777583110 | 16.11° C | 46% | 1028.5 hPa | 0 mm | - | - | - |
| 1777581309 | 17.22° C | 44% | 1028.5 hPa | 0 mm | - | - | - |
| 1777580413 | 17.22° C | 42% | 1028.1 hPa | 0 mm | - | - | - |
| 1777580112 | 17.22° C | 40% | 1028.1 hPa | 0 mm | - | - | - |
| 1777579232 | 17.22° C | 42% | 1028.1 hPa | 0 mm | - | - | - |
| 1777578909 | 17.78° C | 40% | 1028.1 hPa | 0 mm | - | - | - |
| 1777577709 | 17.78° C | 49% | 1027.8 hPa | 0 mm | - | - | - |
| 1777577423 | 17.78° C | 49% | 1027.8 hPa | 0 mm | - | - | - |
| 1777576514 | 17.78° C | 59% | 1027.8 hPa | 0 mm | - | - | - |
| 1777575633 | 17.78° C | 53% | 1027.4 hPa | 0 mm | - | - | - |
| 1777575310 | 17.78° C | 57% | 1026.8 hPa | 0 mm | - | - | - |
| 1777574110 | 17.78° C | 59% | 1026.4 hPa | 0 mm | - | - | - |
| 1777572912 | 18.89° C | 59% | 1026.1 hPa | 0 mm | - | - | - |
| 1777572613 | 18.89° C | 59% | 1026.1 hPa | 0 mm | - | - | - |
| 1777572309 | 18.89° C | 58% | 1026.1 hPa | 0 mm | - | - | - |
* Rain latest hour (hover to see other rain measurements)
** Current wind speed in m/s (hover to see current wind gust speed)